Welcome to the New NWS' Forecast!
Most changes are behind the scenes, but click here for differences you might notice.

Terminal Aerodrome Forecast (TAF)

Issued by National Weather Service (NWS)

                            
962 
FTUS42 KKEY 170542
TAFMTH
TAF
KMTH 170542Z 1706/1806 11007KT P6SM SCT025=